Flag for U.S.A. Weather past 2 weeks in Irving, Texas, U.S.A.

Now
67 °F

Clear.


Feels Like: 67 °F
Forecast: 63 / 85 °F
Wind: No wind

Location: Dallas / Fort Worth International Airport


UV Index: 5 (Moderate)

Visibility: 10 mi


Pressure: 29.90 "Hg

Humidity: 68%

Dew point: 56 °F

Location of IrvingLocation

Historic Weather in Irving

°F

Irving temperature yesterday

Maximum temperature yesterday: 83 °F (at 4:53 PM)
Minimum temperature yesterday: 61 °F (at 6:53 AM)
Average temperature yesterday: 72 °F

Past Weeks' High & Low Weather Summary

 TemperatureHumidityPressure
High85 °F (Apr 10, 4:53 PM)93% (Apr 13, 10:53 AM)30.32 "Hg (Apr 13, 10:53 AM)
Low37 °F (Apr 15, 5:53 AM)17% (Apr 15, 4:53 PM)29.54 "Hg (Apr 13, 7:53 PM)
Average65 °F59%30.01 "Hg
* Reported Apr 8 2:53 AM — Apr 23 2:53 AM, Irving, Weather by CustomWeather, © 2014

Note: Actual official high and low records may vary slightly from our data, if they occured in-between our weather recording intervals... More about our weather records

Advertising

Historic Weather Conditions — Data for Previous 24 hours

 ConditionsComfort  
Time TempWeatherWind HumidityBarometerVisibility
2:53 AM
Apr 23
67 °FClear.No wind68%29.90 "Hg10 mi
1:53 AM67 °FClear.3 mph68%29.90 "Hg10 mi
12:53 AM67 °FClear.5 mph61%29.92 "Hg10 mi
11:53 PM
Apr 22
69 °FClear.3 mph57%29.92 "Hg10 mi
10:53 PM72 °FClear.3 mph52%29.93 "Hg10 mi
9:53 PM72 °FClear.6 mph53%29.93 "Hg10 mi
8:53 PM71 °FSunny.7 mph55%29.91 "Hg10 mi
7:53 PM75 °FSunny.8 mph47%29.90 "Hg10 mi
6:53 PM80 °FSunny.9 mph42%29.90 "Hg10 mi
5:53 PM83 °FSunny.7 mph40%29.91 "Hg10 mi
4:53 PM83 °FPassing clouds.3 mph37%29.93 "Hg10 mi
3:53 PM82 °FPassing clouds.6 mph38%29.95 "Hg10 mi
2:53 PM82 °FPassing clouds.5 mph38%29.97 "Hg10 mi
1:53 PM81 °FPassing clouds.8 mph44%29.99 "Hg10 mi
12:53 PM80 °FScattered clouds.8 mph49%30.02 "Hg10 mi
11:53 AM77 °FScattered clouds.13 mph56%30.04 "Hg10 mi
10:53 AM74 °FPassing clouds.10 mph64%30.05 "Hg10 mi
9:53 AM71 °FSunny.10 mph71%30.06 "Hg10 mi
8:53 AM68 °FSunny.10 mph78%30.05 "Hg9 mi
7:53 AM64 °FFog.5 mph87%30.03 "Hg6 mi
6:53 AM61 °FFog.9 mph93%30.01 "Hg6 mi
5:53 AM62 °FClear.7 mph90%29.98 "Hg9 mi
4:53 AM62 °FClear.6 mph90%29.98 "Hg10 mi
3:53 AM62 °FClear.6 mph90%29.98 "Hg10 mi
Weather by CustomWeather, © 2014

See weather overview